Volver al catálogo

FENGYUN 1C DEB

ActivoSSO
NORAD 30114·DEBRIS·🇨🇳 China

Lanzado May 10, 1999 desde Taiyuan Satellite Launch Center

Loading…

Próximos Pases (próximas 24 horas)

TLE

ActualizadoSource: Space-Track

Época: Sep 14, 2026, 18:21 UTC

1 30114U 99025RT  26257.76502509  .00000219  00000-0  14421-3 0  9997
2 30114  98.7548 257.5151 0082180  59.4106 115.8219 14.09834129 10438

Sigue FENGYUN 1C DEB en tiempo real con AllMySat

Download on the App Store